This is the latest recevied weather packets stored in our database for station/object IW0HP-3. If no packets are shown the sender has not sent any weather packets the latest 10 day(s).
| Time | Temp. | Humidity | Pressure | Rain* | Wind** | Luminosity | Snow |
|---|---|---|---|---|---|---|---|
| 1777268316 | 15.56° C | 69% | 1020.4 hPa | - | - | - | - |
| 1777267113 | 15° C | 66% | 1020.3 hPa | - | - | - | - |
| 1777265907 | 15° C | 69% | 1020.1 hPa | - | - | - | - |
| 1777264703 | 15° C | 63% | 1020 hPa | - | - | - | - |
| 1777263498 | 14.44° C | 63% | 1019.9 hPa | - | - | - | - |
| 1777262294 | 14.44° C | 63% | 1019.7 hPa | - | - | - | - |
| 1777261090 | 14.44° C | 63% | 1019.6 hPa | - | - | - | - |
| 1777259886 | 14.44° C | 62% | 1019.7 hPa | - | - | - | - |
| 1777257477 | 14.44° C | 63% | 1019.8 hPa | - | - | - | - |
| 1777256271 | 14.44° C | 62% | 1019.7 hPa | - | - | - | - |
| 1777255067 | 14.44° C | 62% | 1019.7 hPa | - | - | - | - |
| 1777253863 | 15° C | 64% | 1019.6 hPa | - | - | - | - |
| 1777252658 | 15° C | 64% | 1019.7 hPa | - | - | - | - |
| 1777251454 | 15° C | 63% | 1019.8 hPa | - | - | - | - |
| 1777250249 | 15.56° C | 61% | 1019.7 hPa | - | - | - | - |
| 1777249045 | 15.56° C | 66% | 1019.9 hPa | - | - | - | - |
| 1777247840 | 15.56° C | 70% | 1019.9 hPa | - | - | - | - |
| 1777246642 | 16.11° C | 72% | 1020 hPa | - | - | - | - |
| 1777245432 | 16.67° C | 74% | 1020 hPa | - | - | - | - |
| 1777244227 | 16.67° C | 74% | 1020 hPa | - | - | - | - |
| 1777243022 | 16.67° C | 73% | 1019.9 hPa | - | - | - | - |
| 1777241818 | 16.67° C | 73% | 1019.8 hPa | - | - | - | - |
| 1777240614 | 16.67° C | 72% | 1019.9 hPa | - | - | - | - |
| 1777239409 | 17.22° C | 72% | 1020 hPa | - | - | - | - |
| 1777235796 | 17.78° C | 68% | 1019.9 hPa | - | - | - | - |
* Rain since midnight (hover to see other rain measurements)
** Current wind speed in m/s (hover to see current wind gust speed)